This is the latest recevied weather packets stored in our database for station/object KD4IZ-13. If no packets are shown the sender has not sent any weather packets the latest 10 day(s).
| Time | Temp. | Humidity | Pressure | Rain* | Wind** | Luminosity | Snow |
|---|---|---|---|---|---|---|---|
| 1778242206 | 10.56° C | 72% | 1016.4 hPa | 0 mm | - | 225 W/m² | - |
| 1778241903 | 10.56° C | 73% | 1016.7 hPa | 0 mm | - | 192 W/m² | - |
| 1778241601 | 10° C | 75% | 1016.4 hPa | 0 mm | - | 182 W/m² | - |
| 1778241299 | 9.44° C | 79% | 1016.7 hPa | 0 mm | - | 167 W/m² | - |
| 1778240995 | 9.44° C | 77% | 1016.4 hPa | 0 mm | - | 156 W/m² | - |
| 1778240692 | 9.44° C | 78% | 1016.5 hPa | 0 mm | - | 131 W/m² | - |
| 1778240388 | 8.89° C | 80% | 1016.3 hPa | 0 mm | - | 124 W/m² | - |
| 1778240087 | 8.33° C | 79% | 1016.4 hPa | 0 mm | - | 102 W/m² | - |
| 1778239783 | 8.33° C | 81% | 1016.3 hPa | 0 mm | - | 92 W/m² | - |
| 1778239480 | 7.78° C | 85% | 1016.2 hPa | 0 mm | - | 83 W/m² | - |
| 1778239176 | 7.22° C | 85% | 1016.1 hPa | 0 mm | - | 72 W/m² | - |
| 1778238874 | 6.67° C | 85% | 1016.2 hPa | 0 mm | - | 50 W/m² | - |
| 1778238571 | 6.11° C | 93% | 1016 hPa | 0 mm | - | 46 W/m² | - |
| 1778238269 | 5° C | 92% | 1016 hPa | 0 mm | - | 42 W/m² | - |
| 1778237968 | 5° C | 92% | 1016.1 hPa | 0 mm | - | 39 W/m² | - |
| 1778237665 | 4.44° C | 92% | 1016 hPa | 0 mm | - | 35 W/m² | - |
| 1778237362 | 3.89° C | 91% | 1015.8 hPa | 0 mm | - | 28 W/m² | - |
| 1778237059 | 3.89° C | 92% | 1015.6 hPa | 0 mm | - | 22 W/m² | - |
| 1778236756 | 3.33° C | 93% | 1015.7 hPa | 0 mm | - | 20 W/m² | - |
| 1778236453 | 3.33° C | 92% | 1015.6 hPa | 0 mm | - | 19 W/m² | - |
| 1778236150 | 3.33° C | 92% | 1015.7 hPa | 0 mm | - | 15 W/m² | - |
| 1778235849 | 3.33° C | 92% | 1015.6 hPa | 0 mm | - | 13 W/m² | - |
| 1778235545 | 3.33° C | 90% | 1015.5 hPa | 0 mm | - | 10 W/m² | - |
| 1778235243 | 3.89° C | 90% | 1015.4 hPa | 0 mm | - | 8 W/m² | - |
| 1778234940 | 3.89° C | 90% | 1015.5 hPa | 0 mm | - | 5 W/m² | - |
* Rain latest hour (hover to see other rain measurements)
** Current wind speed in m/s (hover to see current wind gust speed)